Weather History for KOLZ - August, 2013

Change the Weather History Date:

Tuesday, August 27, 2013

  Actual Average Record
Temperature  
Mean Temperature 80 °F -  
Max Temperature 91 °F 79 °F 94 °F (1956)
Min Temperature 69 °F 59 °F 43 °F (1986)
Cooling Degree Days 15    
Growing Degree Days 30 (Base 50)    
Moisture  
Dew Point 72 °F    
Average Humidity 76    
Maximum Humidity 94    
Minimum Humidity 55    
Precipitation  
Precipitation 0.00 in - - ()
Sea Level Pressure  
Sea Level Pressure 29.92 in    
Wind  
Wind Speed 8 mph (SW)    
Max Wind Speed 16 mph    
Max Gust Speed 22 mph    
Visibility 10 miles    
Events      
Averages and records for this station are not official NWS values.
T = Trace of Precipitation, MM = Missing Value Source: NWS Daily Summary

Daily Weather History Graph

Daily Weather History Graph

Search for Another Location

Airport or City:

Trip Planner

Search our weather history database for the weather conditions in past years. The results will help you decide how hot, cold, wet, or windy it might be!

Date:

Astronomy

Aug. 27, 2013 Rise Set
Actual Time 6:27 AM CDT 7:50 PM CDT
Civil Twilight 5:58 AM CDT 8:19 PM CDT
Nautical Twilight 5:22 AM CDT 8:54 PM CDT
Astronomical Twilight 4:45 AM CDT 9:32 PM CDT
Moon 11:33 PM CDT (8/27) 1:36 PM CDT (8/27)
Length of Visible Light 14h 21m
Length of Day
13h 22m
Waning Gibbous, 57% of the Moon is Illuminated
Aug 27
Waning Gibbous
Aug 28
Last Quarter
Sep 5
New
Sep 12
First Quarter
Sep 19
Full

Hourly Weather History & Observations

Time (CDT) Temp. Heat Index Dew Point Humidity Pressure Visibility Wind Dir Wind Speed Gust Speed Precip Events Conditions
12:15 AM 75.2 °F - 71.6 °F 89% 29.99 in 10.0 mi SSW 5.8 mph - N/A   Clear
12:35 AM 75.2 °F - 69.8 °F 83% 29.99 in 10.0 mi SSW 6.9 mph - N/A   Clear
12:55 AM 75.2 °F - 69.8 °F 83% 29.98 in 10.0 mi SSW 5.8 mph - N/A   Clear
1:15 AM 75.2 °F - 69.8 °F 83% 29.98 in 10.0 mi SSW 6.9 mph - N/A   Clear
1:35 AM 73.4 °F - 69.8 °F 88% 29.97 in 10.0 mi SSW 6.9 mph - N/A   Clear
1:55 AM 73.4 °F - 69.8 °F 88% 29.97 in 10.0 mi SSW 6.9 mph - N/A   Clear
2:15 AM 73.4 °F - 69.8 °F 88% 29.97 in 10.0 mi SSW 6.9 mph - N/A   Clear
2:35 AM 73.4 °F - 69.8 °F 88% 29.96 in 10.0 mi SSW 6.9 mph - N/A   Clear
2:55 AM 73.4 °F - 69.8 °F 88% 29.96 in 10.0 mi SSW 8.1 mph - N/A   Clear
3:15 AM 73.4 °F - 69.8 °F 88% 29.95 in 10.0 mi SSW 9.2 mph - N/A   Clear
3:35 AM 73.4 °F - 68.0 °F 83% 29.95 in 10.0 mi SSW 6.9 mph - N/A   Clear
3:55 AM 73.4 °F - 68.0 °F 83% 29.95 in 10.0 mi SSW 6.9 mph - N/A   Clear
4:15 AM 73.4 °F - 68.0 °F 83% 29.94 in 10.0 mi SSW 6.9 mph - N/A   Clear
4:35 AM 71.6 °F - 68.0 °F 88% 29.95 in 10.0 mi South 6.9 mph - N/A   Clear
4:55 AM 71.6 °F - 68.0 °F 88% 29.95 in 10.0 mi South 5.8 mph - N/A   Clear
5:15 AM 69.8 °F - 68.0 °F 94% 29.95 in 10.0 mi South 6.9 mph - N/A   Clear
5:35 AM 71.6 °F - 68.0 °F 88% 29.95 in 10.0 mi South 5.8 mph - N/A   Clear
5:55 AM 69.8 °F - 68.0 °F 94% 29.96 in 10.0 mi South 6.9 mph - N/A   Clear
6:15 AM 69.8 °F - 68.0 °F 94% 29.96 in 10.0 mi South 6.9 mph - N/A   Clear
6:35 AM 69.8 °F - 68.0 °F 94% 29.96 in 10.0 mi South 6.9 mph - N/A   Clear
6:55 AM 69.8 °F - 68.0 °F 94% 29.96 in 10.0 mi South 6.9 mph - N/A   Clear
7:15 AM 69.8 °F - 68.0 °F 94% 29.96 in 10.0 mi South 6.9 mph - N/A   Clear
7:35 AM 71.6 °F - 69.8 °F 94% 29.96 in 10.0 mi South 9.2 mph - N/A   Clear
7:55 AM 73.4 °F - 69.8 °F 88% 29.96 in 10.0 mi South 9.2 mph - N/A   Clear
8:15 AM 75.2 °F - 69.8 °F 83% 29.95 in 10.0 mi South 10.4 mph - N/A   Clear
8:35 AM 77.0 °F - 71.6 °F 83% 29.95 in 10.0 mi South 6.9 mph - N/A   Clear
8:55 AM 78.8 °F - 71.6 °F 78% 29.94 in 10.0 mi SSW 10.4 mph - N/A   Clear
9:15 AM 78.8 °F - 71.6 °F 78% 29.94 in 10.0 mi SSW 11.5 mph - N/A   Clear
9:35 AM 80.6 °F 84.6 °F 71.6 °F 74% 29.93 in 10.0 mi SSW 15.0 mph - N/A   Clear
9:55 AM 82.4 °F 87.2 °F 71.6 °F 70% 29.93 in 10.0 mi SSW 10.4 mph 17.3 mph N/A   Clear
10:15 AM 82.4 °F 87.2 °F 71.6 °F 70% 29.93 in 10.0 mi SW 12.7 mph 20.7 mph N/A   Clear
10:35 AM 84.2 °F 89.6 °F 71.6 °F 66% 29.93 in 10.0 mi WSW 11.5 mph - N/A   Clear
10:55 AM 84.2 °F 89.6 °F 71.6 °F 66% 29.93 in 10.0 mi WSW 12.7 mph 18.4 mph N/A   Clear
11:15 AM 86.0 °F 91.8 °F 71.6 °F 62% 29.93 in 10.0 mi SW 12.7 mph 19.6 mph N/A   Clear
11:35 AM 86.0 °F 93.4 °F 73.4 °F 66% 29.92 in 10.0 mi SW 10.4 mph 19.6 mph N/A   Clear
11:55 AM 86.0 °F 93.4 °F 73.4 °F 66% 29.92 in - SW 13.8 mph - N/A   Clear
12:15 PM 87.8 °F 95.6 °F 73.4 °F 62% 29.91 in 10.0 mi SW 13.8 mph 19.6 mph N/A   Clear
12:35 PM 87.8 °F 93.8 °F 71.6 °F 58% 29.91 in 10.0 mi WSW 12.7 mph 19.6 mph N/A   Clear
12:55 PM 87.8 °F 95.6 °F 73.4 °F 62% 29.91 in 10.0 mi WSW 16.1 mph 21.9 mph N/A   Clear
1:15 PM 89.6 °F 98.2 °F 73.4 °F 59% 29.90 in 10.0 mi WSW 11.5 mph 18.4 mph N/A   Clear
1:35 PM 89.6 °F 98.2 °F 73.4 °F 59% 29.90 in 10.0 mi SW 8.1 mph 17.3 mph N/A   Clear
1:55 PM 89.6 °F 99.8 °F 75.2 °F 62% 29.89 in 10.0 mi SW 12.7 mph - N/A   Clear
2:15 PM 89.6 °F 98.2 °F 73.4 °F 59% 29.89 in 10.0 mi SW 13.8 mph 19.6 mph N/A   Clear
2:35 PM 89.6 °F 98.2 °F 73.4 °F 59% 29.88 in 10.0 mi SW 11.5 mph 18.4 mph N/A   Clear
2:55 PM 91.4 °F 102.5 °F 75.2 °F 59% 29.88 in 10.0 mi SW 11.5 mph 20.7 mph N/A   Clear
3:15 PM 91.4 °F 100.1 °F 73.4 °F 55% 29.88 in 10.0 mi WSW 12.7 mph 19.6 mph N/A   Clear
3:35 PM 91.4 °F 100.1 °F 73.4 °F 55% 29.87 in 10.0 mi SW 11.5 mph 20.7 mph N/A   Clear
3:55 PM 91.4 °F 100.1 °F 73.4 °F 55% 29.87 in 10.0 mi WSW 12.7 mph 20.7 mph N/A   Clear
4:15 PM 91.4 °F 100.1 °F 73.4 °F 55% 29.87 in 10.0 mi WSW 12.7 mph 20.7 mph N/A   Clear
4:35 PM 91.4 °F 100.1 °F 73.4 °F 55% 29.87 in 10.0 mi WSW 11.5 mph 21.9 mph N/A   Clear
4:55 PM 91.4 °F 102.5 °F 75.2 °F 59% 29.87 in 10.0 mi WSW 10.4 mph 20.7 mph N/A   Clear
5:15 PM 91.4 °F 100.1 °F 73.4 °F 55% 29.87 in 10.0 mi SW 11.5 mph 19.6 mph N/A   Clear
5:35 PM 91.4 °F 102.5 °F 75.2 °F 59% 29.87 in 10.0 mi WSW 10.4 mph - N/A   Clear
5:55 PM 89.6 °F 99.8 °F 75.2 °F 62% 29.87 in 10.0 mi WSW 9.2 mph 16.1 mph N/A   Clear
6:15 PM 89.6 °F 99.8 °F 75.2 °F 62% 29.87 in 10.0 mi WSW 8.1 mph 15.0 mph N/A   Clear
6:35 PM 87.8 °F 97.6 °F 75.2 °F 66% 29.87 in 10.0 mi SW 6.9 mph - N/A   Clear
6:55 PM 87.8 °F 97.6 °F 75.2 °F 66% 29.87 in 10.0 mi WSW 6.9 mph - N/A   Clear
7:15 PM 86.0 °F 95.1 °F 75.2 °F 70% 29.87 in 10.0 mi SW 6.9 mph - N/A   Clear
7:35 PM 84.2 °F 92.3 °F 75.2 °F 74% 29.87 in 10.0 mi SW 5.8 mph - N/A   Clear
7:55 PM 82.4 °F 89.5 °F 75.2 °F 79% 29.87 in 10.0 mi SW 5.8 mph - N/A   Clear
8:15 PM 80.6 °F 86.2 °F 75.2 °F 84% 29.88 in 10.0 mi SW 4.6 mph - N/A   Clear
8:35 PM 80.6 °F 85.4 °F 73.4 °F 79% 29.88 in 10.0 mi SW 5.8 mph - N/A   Clear
8:55 PM 78.8 °F - 73.4 °F 83% 29.89 in 10.0 mi SW 4.6 mph - N/A   Clear
9:15 PM 78.8 °F - 73.4 °F 83% 29.90 in 10.0 mi WSW 3.5 mph - N/A   Clear
9:35 PM 78.8 °F - 73.4 °F 83% 29.91 in 10.0 mi WNW 4.6 mph - N/A   Clear
9:55 PM 78.8 °F - 73.4 °F 83% 29.91 in 10.0 mi WSW 5.8 mph - N/A   Clear
10:15 PM 78.8 °F - 73.4 °F 83% 29.91 in 10.0 mi WSW 5.8 mph - N/A   Clear
10:35 PM 78.8 °F - 73.4 °F 83% 29.92 in 10.0 mi West 4.6 mph - N/A   Clear
10:55 PM 77.0 °F - 73.4 °F 89% 29.92 in 10.0 mi West 5.8 mph - N/A   Clear
11:15 PM 77.0 °F - 73.4 °F 89% 29.92 in 10.0 mi WSW 4.6 mph - N/A   Clear
11:35 PM 77.0 °F - 73.4 °F 89% 29.93 in 10.0 mi West 4.6 mph - N/A   Clear
11:55 PM 77.0 °F - 73.4 °F 89% 29.93 in 10.0 mi West 5.8 mph - N/A   Clear